SL-12 R/B(AUX MOTOR), 37143

Orbit data source: Space-Track

SL-12 R/B(AUX MOTOR), 37143 is space debris originally from a launch on Thu, 02 Sep 2010 UTC launched from the Tyuratam Missile And Space Complex (TTMTR). Debris objects in space refer to the collection of defunct objects orbiting the Earth. Examples of debris include non-operational satellites, rocket bodies, and fragments generated from explosions, collisions, or faulty payload assembly.

Loading next visibility...
Identifier
37143, 2010-041G
Orbit
Active
Country
Flag of CISCIS
Related business
Manufacturer
RKKE
Mission
Spacecraft
Bus & Motor
SOZ, Unknown motor
Mass
56 kg wet, 56 kg dry
Launch date (UTC)
2010-09-02 (16 years ago)
Launch vehicle
Unknown
Launch site
Tyuratam Missile And Space Complex (TTMTR)
Object type
Payload
Rocket body
Debris
Shape & HBR
Cyl, 0.6 m
Radar Cross Section
0.660 m², Medium (>0.1 m² and < 1m²)

Expand to show TLE details & history
Last TLE update: 16 hours ago

TLE from 16 hours ago
0 SL-12 R/B(AUX MOTOR)
1 37143U 10041G   26127.54709612  .00037983  00000-0  20607-2 0  9993
2 37143  64.4359 217.8807 3255820 279.6769  45.6822  8.84463202278477
Epoch: 2026-05-07T13:07Z
TLE epoch observation values (Epoch: 2026-05-07T13:07:49.104Z)
Latitude
-0.00002°
Longitude
155.53442°
Altitude
1,999.603 km
Speed
7.405 km/s
True Right ascension
14h 31m 31s
True Declination
0° 00' 00"
Sunlit
Object was in full shadow at epoch
Visualization orbit readout
Latitude
Unknown
Longitude
Unknown
Altitude
Unknown
Speed
Unknown
Apparent Right ascension
Unknown
Apparent Declination
Unknown
Sunlit
N/A
Visualization observer readout
Local Sidereal Time
12:54:11
Azimuth
Unknown
Elevation
Unknown
Doppler factor
Unknown
Orbital elements
Apogee altitude
6,712.808 km
Perigee altitude
282.159 km
Semi-major axis
9,875.621 km
Eccentricity
0.32558
Inclination
64.4359°
RAAN
217.8807°
Arg. of periapsis
279.6769°
True anomaly
80.42233°
Mean anomaly
45.6822°
Eccentric anomaly
62.18065°
Mean motion
2.21155 °/min
Orbital period
162.78 mins
BSTAR
0.0020607
Loading maneuver chart data...
Computing Atmospheric mass density...
Loading historical data...
Loading historical data...
Loading historical data...
Loading historical data...
Loading historical data...
Loading historical data...
Loading historical data...

Documentation

Showing up to 5 results
|